#timestamp,LO_Frequency,Hit,StdDev 
1589030055.5,286046992.5,P
1589030075.3,286046990.2,P
1589030095.2,286046990.6,P
1589030115.0,286046991.2,Y
1589030115.9,286046991.2,P
1589030135.8,286046998.8,P
1589030155.6,286046999.0,N
1589030175.4,286046999.3,N
1589030195.3,286046999.1,N
1589030215.1,286046999.2,N
1589030235.9,286046999.6,N
1589030255.7,286046996.7,N
1589030275.5,286046996.6,N
1589030295.4,286046997.1,N
1589030315.2,286046997.2,N
1589030335.0,286046996.7,N
1589030335.9,286046996.7,N
1589030355.8,286046999.2,N
1589030375.6,286046998.4,N
1589030395.5,286047001.0,N
1589030415.3,286047001.0,N
1589030435.1,286047000.5,N
1589030455.9,286047000.4,N
1589030475.7,286046998.6,N
1589030495.5,286046996.9,N
1589030515.4,286046997.8,N
1589030535.2,286046995.3,N
1589030555.1,286046995.7,N
1589030556.0,286046995.7,N
1589030575.8,286046995.4,N
1589030595.6,286046995.6,N
1589030615.5,286046995.6,N
1589030635.3,286046995.9,N
1589030655.2,286046995.6,N
1589030675.9,286046997.4,N
1589030695.7,286046994.9,N
1589030715.6,286046995.0,N
1589030735.4,286046997.5,N
1589030755.2,286046997.6,N
1589030775.1,286046997.7,N
1589030776.0,286046997.7,N
1589030795.8,286046997.6,N
1589030815.7,286046995.8,N
1589030835.5,286046995.9,N
1589030855.3,286046993.7,Y
1589030875.2,286046995.3,P
1589030895.0,286046993.7,P
1589030895.9,286046993.7,P
1589030915.7,286046996.0,N
1589030935.6,286046995.4,Y
1589030955.4,286046999.7,P
1589030975.3,286047002.8,N
1589030995.1,286047002.5,N
1589031015.8,286047002.3,N
1589031035.7,286046999.9,N
1589031055.5,286047001.0,N
1589031075.4,286047002.4,N
1589031095.2,286046999.8,N
1589031115.0,286047000.7,N
1589031115.9,286047000.7,N
1589031135.8,286047001.2,N
1589031155.6,286046999.0,N
1589031175.4,286046996.9,N
1589031195.3,286046997.3,N
1589031215.1,286046999.3,N
1589031235.9,286046998.9,N
1589031255.7,286046999.6,N
1589031275.5,286046996.7,N
1589031295.4,286046996.7,N
1589031315.2,286046997.8,N
1589031335.0,286046998.0,N
1589031335.9,286046998.0,N
1589031355.8,286046995.2,N
1589031375.6,286046996.2,N
1589031395.5,286046993.4,N
1589031415.3,286046993.4,N
1589031435.1,286046995.2,N
1589031455.9,286046995.7,N
1589031475.7,286046995.5,N
1589031495.5,286046996.4,N
1589031515.4,286046996.4,N
1589031535.2,286046995.9,N
1589031555.1,286046993.5,N
1589031556.0,286046993.5,N
1589031575.8,286046993.9,N
1589031595.6,286046994.0,N
1589031615.5,286046993.6,N
1589031635.3,286046993.6,N
1589031655.2,286046994.3,N
1589031675.9,286046994.7,N
1589031695.7,286046994.5,N
1589031715.6,286046993.4,Y
1589031735.4,286046998.4,P
1589031755.2,286046998.8,N
1589031775.1,286046998.8,N
1589031776.0,286046998.8,N
1589031795.8,286046999.2,N
1589031815.7,286046998.2,N
1589031835.5,286046998.3,N
1589031855.3,286046998.4,N
1589031875.2,286046998.8,N
1589031895.0,286046998.7,N
1589031895.9,286046998.7,N
1589031915.8,286046998.4,N
1589031935.6,286046999.0,N
1589031955.4,286046996.5,Y
1589031975.3,286046998.7,P
1589031995.1,286047001.1,P
1589032015.8,286047000.8,N
1589032035.7,286046998.1,N
1589032055.5,286046998.6,N
1589032075.4,286047000.9,N
1589032095.2,286046998.2,N
1589032115.0,286047000.8,N
1589032115.9,286047000.8,N
1589032135.8,286047000.3,N
1589032155.6,286047000.8,N
1589032175.5,286047000.8,N
1589032195.3,286047000.9,N
1589032215.1,286047000.8,N
1589032235.9,286046998.6,N
1589032255.7,286046998.7,N
1589032275.5,286046998.2,N
1589032295.4,286047001.0,N
1589032315.2,286047001.1,N
1589032335.1,286046999.6,N
1589032336.0,286046999.6,N
1589032355.8,286046997.4,N
1589032375.6,286046999.5,N
1589032395.5,286046997.3,N
1589032415.3,286046997.4,N
1589032435.1,286046996.7,N
1589032455.9,286046996.5,N
1589032475.7,286046996.5,N
1589032495.6,286046999.1,N
1589032515.4,286046997.1,N
1589032535.2,286046999.2,N
1589032555.1,286046998.7,N
1589032556.0,286046998.7,N
1589032575.8,286046996.5,N
1589032595.6,286046999.5,N
1589032615.5,286046997.1,N
1589032635.3,286046998.0,N
1589032655.2,286046997.3,N
1589032675.9,286046996.5,N
1589032695.7,286046996.8,N
1589032715.6,286046997.7,N
1589032735.4,286046998.0,N
1589032755.2,286046997.6,N
1589032775.1,286046997.9,N
1589032776